Location: Twentynine Palms Airport
(34.1316°N, 115.9458°W)
Time: 07:00:34
(UTC-07:00)

Amateur Radio Satellites - All Passes

Search period start: 25 September 2016 06:30
Search period end: 26 September 2016 06:30
Location: Twentynine Palms Airport, 34.1316°N, 115.9458°W

Satellite Date Start Highest point End Downlink Frequencies (MHz)
Time Altitude Azimuth
AIST 1 25 Sep 06:31:32 06:35:03 23° 283° (WNW) 06:38:36
DOVE 4 25 Sep 06:42:46 06:45:56 21° 95° (E) 06:49:03 437.250
HORYU 2 25 Sep 07:10:33 07:12:48 14° 294° (WNW) 07:15:03 437.375
CUSAT 1 25 Sep 07:11:51 07:19:27 60° 267° (W) 07:25:49 437.405
GONETS M04 25 Sep 07:16:40 07:20:12 13° 78° (ENE) 07:23:43
NOAA 15 25 Sep 07:27:27 07:32:31 47° 288° (WNW) 07:37:33 137.62
Cubesat XI-IV 25 Sep 07:32:23 07:37:34 54° 287° (WNW) 07:42:47 437.490
CUTE-I 25 Sep 07:33:33 07:38:44 52° 287° (WNW) 07:43:55 437.470
BRITE-PL 25 Sep 07:39:38 07:42:01 14° 296° (WNW) 07:44:19 437.365/2234.400
STRAND 1 25 Sep 07:42:10 07:47:07 54° 259° (W) 07:52:07 437.568
GOMX 1 25 Sep 07:43:22 07:47:02 26° 290° (WNW) 07:50:33 467.674
NOAA 18 25 Sep 07:48:46 07:54:00 49° 288° (WNW) 07:59:15 137.9125
CUTE 1.7 + AOD 2 25 Sep 07:49:38 07:52:58 22° 95° (E) 07:56:17 437.475
CANX-2 25 Sep 07:50:01 07:53:38 26° 96° (E) 07:57:13 2200.000
AO-85 25 Sep 07:56:54 08:00:12 25° 249° (WSW) 08:03:23 145.980
SEEDS 25 Sep 07:57:08 08:00:04 18° 94° (E) 08:02:58 437.485
LilacSat-2 25 Sep 08:00:36 08:02:43 14° 291° (WNW) 08:04:51 437.200
O/OREOS (USA 219) 25 Sep 08:02:57 08:07:25 60° 291° (WNW) 08:11:57 437.305
CUBEBUG 2 25 Sep 08:09:23 08:11:12 12° 93° (E) 08:13:01 437.445
DANDE 25 Sep 08:12:03 08:20:06 52° 269° (W) 08:27:35 436.750
CINEMA 3 25 Sep 08:16:07 08:20:16 66° 101° (E) 08:24:29 145.822/145.860
DOVE 4 25 Sep 08:20:12 08:23:35 24° 289° (WNW) 08:26:54 437.250
HO-68 25 Sep 08:21:08 08:28:08 56° 102° (ESE) 08:35:05 435.675
RS-15 25 Sep 08:24:23 08:32:02 19° 261° (W) 08:39:35 29.354- 29.394
AAUSAT CUBESAT 2 25 Sep 08:28:19 08:31:33 21° 95° (E) 08:34:45 437.432
UWE-3 25 Sep 08:33:13 08:35:50 16° 94° (E) 08:38:29 435.000/436.395/437.385
PRISM 25 Sep 09:01:52 09:06:00 75° 258° (WSW) 09:10:12 437.425
Cosmos 2499 25 Sep 09:02:19 09:09:32 66° 93° (E) 09:16:31 435.465 / 435.565
GONETS M04 25 Sep 09:06:43 09:15:33 84° 95° (E) 09:24:27
ZACube-1 25 Sep 09:08:37 09:12:13 25° 97° (E) 09:15:52 437.345
COMPASS 1 25 Sep 09:08:43 09:12:57 88° 291° (WNW) 09:17:10 437.405
ANTELSAT 25 Sep 09:11:39 09:13:45 14° 67° (ENE) 09:15:51 437.575/2403.000
Oscar 11 25 Sep 09:12:27 09:16:09 27° 96° (E) 09:19:50 145.826/435.025
CUTE 1.7 + AOD 2 25 Sep 09:25:10 09:28:43 25° 289° (WNW) 09:32:15 437.475
CANX-2 25 Sep 09:26:01 09:29:18 22° 290° (WNW) 09:32:36 2200.000
TIGRISAT 25 Sep 09:31:43 09:35:00 22° 70° (ENE) 09:38:16 435.000
SEEDS 25 Sep 09:32:01 09:35:45 30° 288° (WNW) 09:39:28 437.485
CUBEBUG 2 25 Sep 09:43:54 09:47:57 44° 286° (WNW) 09:52:07 437.445
HUMSAT D 25 Sep 09:56:00 09:58:32 15° 94° (E) 10:01:05 437.325/437.525
AAUSAT CUBESAT 2 25 Sep 10:03:30 10:06:55 25° 289° (WNW) 10:10:19 437.432
FUNcube-1 25 Sep 10:03:50 10:08:08 73° 284° (WNW) 10:12:32 145.935
UWE-3 25 Sep 10:08:25 10:12:21 36° 287° (WNW) 10:16:22 435.000/436.395/437.385
HO-68 25 Sep 10:09:50 10:15:21 25° 297° (WNW) 10:20:52 435.675
UNISAT 6 25 Sep 10:10:13 10:14:30 70° 77° (ENE) 10:18:44 437.425
DELFI C3 25 Sep 10:13:05 10:17:02 54° 100° (E) 10:20:57 145.870
BEESAT 3 25 Sep 10:23:41 10:27:13 30° 56° (NE) 10:30:45 437.485
QB50P1 25 Sep 10:26:59 10:28:27 12° 66° (ENE) 10:29:55 145.935-145.965
DUCHIFAT 1 25 Sep 10:29:08 10:29:38 10° 66° (ENE) 10:30:09 145.980
PHONESAT 2.4 25 Sep 10:35:08 10:37:16 18° 145° (SE) 10:39:24 2401.200-2431.200
POPSAT HIP 1 25 Sep 10:38:58 10:41:34 16° 68° (ENE) 10:44:11 437.405
ZACube-1 25 Sep 10:44:58 10:48:21 23° 289° (WNW) 10:51:46 437.345
ANTELSAT 25 Sep 10:46:00 10:50:05 42° 261° (W) 10:54:08 437.575/2403.000
JAS-2 25 Sep 10:46:26 10:51:12 23° 62° (ENE) 10:56:24 435.910
Oscar 11 25 Sep 10:48:47 10:52:06 21° 290° (WNW) 10:55:24 145.826/435.025
NANOSAT C BR1 25 Sep 10:56:25 10:59:51 25° 71° (ENE) 11:03:16 145.865
Cosmos 2499 25 Sep 10:58:40 11:03:08 17° 289° (WNW) 11:07:34 435.465 / 435.565
TIGRISAT 25 Sep 11:08:01 11:11:33 25° 263° (W) 11:15:04 435.000
GONETS M04 25 Sep 11:08:01 11:13:23 17° 293° (WNW) 11:18:48
BEESAT 2 25 Sep 11:12:52 11:16:49 53° 59° (ENE) 11:20:43 435.950
QB50P2 25 Sep 11:16:18 11:20:22 50° 75° (ENE) 11:24:27 145.880/145.840
POLYITAN 1 25 Sep 11:18:34 11:22:37 50° 75° (ENE) 11:26:42 437.675
ESTCUBE 1 25 Sep 11:24:22 11:28:02 24° 96° (E) 11:31:40 437.505/2401.250
HUMSAT D 25 Sep 11:30:20 11:34:12 35° 287° (WNW) 11:38:06 437.325/437.525
VELOX 1 25 Sep 11:36:59 11:39:25 15° 94° (E) 11:41:51 145.980
CUBEBUG 1 25 Sep 11:47:41 11:51:20 26° 97° (E) 11:54:56 437.445
QB50P1 25 Sep 11:59:41 12:03:45 48° 260° (W) 12:07:50 145.935-145.965
DUCHIFAT 1 25 Sep 12:00:42 12:04:48 55° 260° (W) 12:08:55 145.980
BEESAT 3 25 Sep 12:01:57 12:04:37 17° 250° (WSW) 12:07:17 437.485
PHONESAT 2.4 25 Sep 12:10:16 12:13:12 61° 339° (NNW) 12:16:08 2401.200-2431.200
POPSAT HIP 1 25 Sep 12:13:14 12:17:03 34° 262° (W) 12:20:53 437.405
BUGSAT 1 25 Sep 12:14:46 12:18:54 82° 79° (E) 12:23:00 437.445
AISAT 25 Sep 12:27:47 12:32:09 64° 102° (ESE) 12:36:28 437.250
JAS-2 25 Sep 12:29:39 12:35:36 54° 261° (W) 12:42:24 435.910
NANOSAT C BR1 25 Sep 12:32:15 12:35:28 21° 264° (W) 12:38:42 145.865
50 SAT 25 Sep 12:33:05 12:36:45 75° 102° (ESE) 12:40:24 437.505
AUBIESAT-1 25 Sep 12:38:38 12:41:38 33° 104° (ESE) 12:44:40 437.475
SPROUT 25 Sep 12:41:31 12:45:36 45° 99° (E) 12:49:40 437.525
UKube-1 25 Sep 12:49:54 12:54:05 49° 100° (E) 12:58:15 .
QB50P2 25 Sep 12:55:44 12:56:24 10° 268° (W) 12:57:04 145.880/145.840
POLYITAN 1 25 Sep 12:58:07 12:58:39 10° 268° (W) 12:59:11 437.675
ESTCUBE 1 25 Sep 13:00:58 13:04:44 26° 290° (WNW) 13:08:28 437.505/2401.250
Oscar 19 25 Sep 13:05:05 13:10:06 52° 73° (ENE) 13:15:09 437.125/150
PCSat 25 Sep 13:05:29 13:07:53 13° 48° (NE) 13:10:18 145.827
YUBILEINY 25 Sep 13:05:38 13:11:13 18° 68° (ENE) 13:16:46 435.215
AIST 2 25 Sep 13:11:12 13:15:03 34° 56° (ENE) 13:18:52 435.215
VELOX 1 25 Sep 13:11:54 13:16:00 39° 287° (WNW) 13:20:05 145.980
DX 1 25 Sep 13:13:03 13:17:21 63° 285° (WNW) 13:21:36 434.975-435.025
M-CUBED/EXP-1 PRIME 25 Sep 13:13:25 13:16:35 48° 289° (WNW) 13:19:45 437.505
CUBEBUG 1 25 Sep 13:24:08 13:27:26 22° 291° (WNW) 13:30:42 437.445
Gurwin Techsat 1B 25 Sep 13:40:41 13:45:49 53° 73° (ENE) 13:50:59 435.225
PHONESAT 2.4 25 Sep 13:47:11 13:49:40 23° 355° (N) 13:52:09 2401.200-2431.200
ITAMSAT 1 25 Sep 13:53:58 13:57:28 19° 66° (ENE) 14:00:57 435.822/435.867
TISAT 1 25 Sep 14:11:48 14:15:58 81° 283° (WNW) 14:20:08 437.305
SPROUT 25 Sep 14:19:17 14:21:06 13° 293° (WNW) 14:22:54 437.525
UKube-1 25 Sep 14:27:57 14:29:38 12° 294° (WNW) 14:31:20 .
SO-50 25 Sep 14:46:18 14:50:00 22° 110° (ESE) 14:53:41 436.795
PCSat 25 Sep 14:46:31 14:51:58 85° 248° (WSW) 14:57:22 145.827
ITUPSAT 1 25 Sep 14:46:32 14:50:59 38° 98° (E) 14:55:27 437.325
Oscar 19 25 Sep 14:46:41 14:49:39 15° 267° (W) 14:52:39 437.125/150
Cosmos 2491 25 Sep 14:49:26 14:57:54 56° 90° (E) 15:06:26 435.465 / 435.565
AIST 2 25 Sep 14:50:26 14:53:14 18° 250° (WSW) 14:56:02 435.215
YUBILEINY 25 Sep 15:00:12 15:08:54 79° 266° (W) 15:17:34 435.215
SWISSCUBE 25 Sep 15:00:55 15:05:42 64° 102° (ESE) 15:10:26 437.505
AO-7 25 Sep 15:03:00 15:11:04 57° 68° (ENE) 15:19:08 29.400- 29.500
BEESAT 25 Sep 15:14:11 15:18:59 80° 102° (ESE) 15:23:46 436.000
Gurwin Techsat 1B 25 Sep 15:22:59 15:26:01 15° 267° (W) 15:29:04 435.225
PHONESAT 2.4 25 Sep 15:23:39 15:26:18 28° 11° (NNE) 15:28:56 2401.200-2431.200
MOZHAYETS 4 25 Sep 15:28:18 15:31:19 17° 94° (E) 15:34:18
ITAMSAT 1 25 Sep 15:31:37 15:36:32 45° 260° (W) 15:41:29 435.822/435.867
Cosmos 2504 25 Sep 15:38:23 15:45:50 74° 83° (E) 15:53:47 435.465 / 435.565
KKS-1 25 Sep 16:12:09 16:16:05 31° 98° (E) 16:20:01 437.445
ITUPSAT 1 25 Sep 16:25:09 16:28:31 19° 293° (WNW) 16:31:52 437.325
SO-50 25 Sep 16:25:47 16:30:14 36° 304° (NW) 16:34:41 436.795
HORYU 2 25 Sep 16:27:06 16:30:47 27° 70° (ENE) 16:34:29 437.375
O/OREOS (USA 219) 25 Sep 16:39:37 16:41:26 12° 58° (ENE) 16:43:15 437.305
SWISSCUBE 25 Sep 16:41:12 16:42:53 12° 296° (WNW) 16:44:34 437.505
AIST 1 25 Sep 16:41:24 16:45:38 56° 82° (E) 16:49:48
CUBESAT XI-V 25 Sep 16:41:45 16:43:47 13° 92° (E) 16:45:47 437.345
Cosmos 2491 25 Sep 16:47:56 16:55:05 28° 288° (WNW) 17:02:20 435.465 / 435.565
STARS 25 Sep 16:52:52 16:57:02 42° 99° (E) 17:01:10 437.465
AO-7 25 Sep 16:57:21 17:04:06 27° 263° (W) 17:10:54 29.400- 29.500
PHONESAT 2.4 25 Sep 16:59:38 17:02:36 69° 207° (SSW) 17:05:33 2401.200-2431.200
YUBILEINY 25 Sep 17:01:52 17:04:10 11° 283° (WNW) 17:06:29 435.215
MOZHAYETS 4 25 Sep 17:04:16 17:08:34 38° 287° (WNW) 17:12:50
BRITE-PL 25 Sep 17:04:55 17:10:15 43° 72° (ENE) 17:15:34 437.365/2234.400
NOAA 15 25 Sep 17:05:35 17:09:23 20° 66° (ENE) 17:13:12 137.62
GOMX 1 25 Sep 17:09:22 17:13:17 21° 68° (ENE) 17:17:06 467.674
Cubesat XI-IV 25 Sep 17:12:35 17:16:12 19° 66° (ENE) 17:19:48 437.490
CUTE-I 25 Sep 17:13:30 17:17:11 19° 66° (ENE) 17:20:52 437.470
NOAA 18 25 Sep 17:32:00 17:36:21 25° 67° (ENE) 17:40:43 137.9125
Cosmos 2504 25 Sep 17:34:06 17:38:25 16° 277° (W) 17:42:53 435.465 / 435.565
DOVE 4 25 Sep 17:44:26 17:47:51 18° 69° (ENE) 17:51:11 437.250
KKS-1 25 Sep 17:49:16 17:52:24 19° 292° (WNW) 17:55:31 437.445
HORYU 2 25 Sep 18:03:52 18:07:16 22° 264° (W) 18:10:41 437.375
O/OREOS (USA 219) 25 Sep 18:16:41 18:21:13 59° 254° (WSW) 18:25:42 437.305
CUBESAT XI-V 25 Sep 18:16:51 18:21:24 51° 286° (WNW) 18:25:55 437.345
RS-15 25 Sep 18:20:03 18:26:52 18° 98° (E) 18:33:49 29.354- 29.394
CUSAT 1 25 Sep 18:27:41 18:32:03 23° 83° (E) 18:37:12 437.405
STARS 25 Sep 18:30:41 18:32:59 14° 293° (WNW) 18:35:16 437.465
LilacSat-2 25 Sep 18:37:15 18:40:53 47° 261° (W) 18:44:32 437.200
CANX-2 25 Sep 18:41:04 18:42:40 12° 67° (ENE) 18:44:15 2200.000
NOAA 15 25 Sep 18:43:48 18:48:48 43° 261° (W) 18:53:51 137.62
BRITE-PL 25 Sep 18:44:25 18:48:46 22° 266° (W) 18:53:08 437.365/2234.400
GOMX 1 25 Sep 18:45:47 18:50:59 45° 261° (W) 18:56:04 467.674
HO-68 25 Sep 18:46:27 18:52:21 29° 64° (ENE) 18:58:14 435.675
Cubesat XI-IV 25 Sep 18:50:46 18:55:51 46° 260° (W) 19:00:58 437.490
CUTE-I 25 Sep 18:51:48 18:56:51 45° 260° (W) 19:01:55 437.470
Cosmos 2499 25 Sep 18:58:14 19:03:01 17° 71° (ENE) 19:07:59 435.465 / 435.565
NOAA 18 25 Sep 19:11:46 19:16:46 36° 261° (W) 19:21:48 137.9125
CINEMA 3 25 Sep 19:13:56 19:18:11 38° 74° (ENE) 19:22:16 145.822/145.860
DOVE 4 25 Sep 19:20:20 19:25:13 43° 261° (W) 19:29:54 437.250
GONETS M04 25 Sep 19:22:24 19:30:15 35° 75° (ENE) 19:38:01
DANDE 25 Sep 19:34:27 19:38:19 27° 85° (E) 19:43:09 436.750
COMPASS 1 25 Sep 19:55:40 19:59:28 36° 73° (ENE) 20:03:19 437.405
STRAND 1 25 Sep 19:56:12 20:01:21 70° 102° (ESE) 20:06:29 437.568
ZACube-1 25 Sep 20:02:46 20:04:27 12° 67° (ENE) 20:06:08 437.345
Oscar 11 25 Sep 20:05:01 20:07:10 14° 67° (ENE) 20:09:18 145.826/435.025
CUSAT 1 25 Sep 20:07:53 20:13:21 48° 285° (WNW) 20:20:15 437.405
ISS 25 Sep 20:10:46 20:13:42 32° 131° (SE) 20:16:39 145.825
CUTE 1.7 + AOD 2 25 Sep 20:13:08 20:17:16 58° 260° (W) 20:21:28 437.475
CANX-2 25 Sep 20:13:58 20:18:03 47° 261° (W) 20:22:09 2200.000
SEEDS 25 Sep 20:19:07 20:23:17 73° 258° (WSW) 20:27:31 437.485
RS-15 25 Sep 20:25:55 20:37:25 87° 115° (ESE) 20:49:35 29.354- 29.394
AO-85 25 Sep 20:26:41 20:30:40 22° 110° (ESE) 20:34:33 145.980
HO-68 25 Sep 20:32:50 20:39:41 48° 259° (W) 20:46:35 435.675
CUBEBUG 2 25 Sep 20:37:57 20:42:13 88° 264° (W) 20:46:25 437.445
PRISM 25 Sep 20:47:58 20:50:56 19° 95° (E) 20:53:53 437.425
AAUSAT CUBESAT 2 25 Sep 20:48:55 20:53:00 61° 260° (W) 20:57:09 437.432
Cosmos 2499 25 Sep 20:49:06 20:56:40 75° 266° (W) 21:04:51 435.465 / 435.565
JUGNU 25 Sep 20:51:13 20:54:19 14° 168° (SSE) 20:57:24 437.505
CINEMA 3 25 Sep 20:52:39 20:55:22 16° 265° (W) 20:58:03 145.822/145.860
FUNcube-1 25 Sep 20:55:38 20:59:38 50° 75° (ENE) 21:03:38 145.935
DELFI C3 25 Sep 20:55:58 20:58:48 19° 70° (ENE) 21:01:38 145.870
UWE-3 25 Sep 21:01:16 21:05:27 72° 258° (WSW) 21:09:37 435.000/436.395/437.385
DANDE 25 Sep 21:16:54 21:20:55 27° 291° (WNW) 21:26:02 436.750
GONETS M04 25 Sep 21:18:57 21:27:05 44° 272° (W) 21:35:10
COMPASS 1 25 Sep 21:32:50 21:35:08 14° 267° (W) 21:37:25 437.405
ZACube-1 25 Sep 21:36:22 21:40:19 43° 261° (W) 21:44:17 437.345
STRAND 1 25 Sep 21:37:54 21:39:52 12° 297° (WNW) 21:41:52 437.568
Oscar 11 25 Sep 21:38:47 21:42:52 43° 261° (W) 21:46:59 145.826/435.025
ISS 25 Sep 21:47:42 21:50:14 20° 326° (NNW) 21:52:46 145.825
AO-85 25 Sep 22:05:58 22:10:55 41° 303° (WNW) 22:15:37 145.980
UNISAT 6 25 Sep 22:06:09 22:09:21 19° 95° (E) 22:12:34 437.425
HUMSAT D 25 Sep 22:17:16 22:21:20 86° 258° (WSW) 22:25:26 437.325/437.525
ESTCUBE 1 25 Sep 22:21:21 22:23:52 15° 67° (ENE) 22:26:24 437.505/2401.250
PRISM 25 Sep 22:22:43 22:26:11 26° 289° (WNW) 22:29:38 437.425
DELFI C3 25 Sep 22:30:06 22:33:26 25° 264° (W) 22:36:46 145.870
JUGNU 25 Sep 22:38:30 22:42:38 20° 178° (S) 22:46:44 437.505
ANTELSAT 25 Sep 22:40:44 22:45:01 49° 100° (E) 22:49:23 437.575/2403.000
CUBEBUG 1 25 Sep 22:41:02 22:43:33 15° 67° (ENE) 22:46:03 437.445
RS-15 25 Sep 22:41:56 22:51:34 28° 321° (NW) 23:01:37 29.354- 29.394
TIGRISAT 25 Sep 23:01:50 23:06:15 84° 104° (ESE) 23:10:44 435.000
50 SAT 25 Sep 23:07:03 23:09:30 18° 70° (ENE) 23:11:59 437.505
QB50P2 25 Sep 23:07:28 23:08:27 11° 92° (E) 23:09:26 145.880/145.840
POLYITAN 1 25 Sep 23:09:41 23:10:42 11° 92° (E) 23:11:42 437.675
AUBIESAT-1 25 Sep 23:20:48 23:24:21 27° 68° (ENE) 23:27:43 437.475
AISAT 25 Sep 23:21:23 23:25:26 35° 72° (ENE) 23:29:30 437.250
SRMSAT 25 Sep 23:31:11 23:34:36 16° 170° (S) 23:38:00 437.500
SPROUT 25 Sep 23:31:53 23:35:10 22° 70° (ENE) 23:38:28 437.525
UKube-1 25 Sep 23:41:02 23:44:37 26° 70° (ENE) 23:48:14 .
UNISAT 6 25 Sep 23:42:11 23:46:02 30° 288° (WNW) 23:49:58 437.425
JAS-2 25 Sep 23:43:07 23:49:57 32° 94° (E) 23:56:26 435.910
QB50P1 25 Sep 23:48:06 23:51:55 33° 98° (E) 23:55:43 145.935-145.965
DUCHIFAT 1 25 Sep 23:48:40 23:52:19 29° 97° (E) 23:55:57 145.980
M-CUBED/EXP-1 PRIME 25 Sep 23:55:17 23:59:38 84° 252° (WSW) 00:03:39 437.505
ESTCUBE 1 25 Sep 23:55:57 00:00:16 44° 261° (W) 00:04:36 437.505/2401.250
POPSAT HIP 1 26 Sep 00:01:12 00:05:16 47° 100° (E) 00:09:19 437.405
BUGSAT 1 26 Sep 00:01:38 00:03:53 15° 94° (E) 00:06:08 437.445
DX 1 26 Sep 00:04:24 00:08:45 67° 75° (ENE) 00:13:05 434.975-435.025
VELOX 1 26 Sep 00:04:46 00:09:12 74° 257° (WSW) 00:13:41 145.980
BEESAT 3 26 Sep 00:12:34 00:14:08 12° 108° (ESE) 00:15:41 437.485
CUBEBUG 1 26 Sep 00:15:15 00:19:26 41° 261° (W) 00:23:37 437.445
NANOSAT C BR1 26 Sep 00:19:02 00:23:13 78° 100° (E) 00:27:26 145.865
ANTELSAT 26 Sep 00:19:21 00:21:17 13° 293° (WNW) 00:23:16 437.575/2403.000
JUGNU 26 Sep 00:27:15 00:30:57 17° 188° (S) 00:34:38 437.505
50 SAT 26 Sep 00:39:59 00:42:50 22° 264° (W) 00:45:42 437.505
QB50P2 26 Sep 00:40:24 00:44:28 48° 286° (WNW) 00:48:33 145.880/145.840
POLYITAN 1 26 Sep 00:42:38 00:46:42 48° 286° (WNW) 00:50:46 437.675
AUBIESAT-1 26 Sep 00:55:40 00:58:43 19° 258° (WSW) 01:01:39 437.475
AISAT 26 Sep 00:59:04 01:01:58 17° 266° (W) 01:04:51 437.250
TISAT 1 26 Sep 00:59:33 01:03:31 43° 74° (ENE) 01:07:30 437.305
SO-50 26 Sep 01:00:26 01:04:59 73° 61° (ENE) 01:09:24 436.795
BEESAT 2 26 Sep 01:01:44 01:04:50 22° 111° (ESE) 01:07:57 435.950
Cosmos 2491 26 Sep 01:05:35 01:12:08 22° 70° (ENE) 01:18:38 435.465 / 435.565
RS-15 26 Sep 01:05:48 01:10:28 13° 356° (N) 01:15:11 29.354- 29.394
SPROUT 26 Sep 01:07:26 01:10:57 25° 264° (W) 01:14:29 437.525
UKube-1 26 Sep 01:17:14 01:20:35 22° 264° (W) 01:23:57 .
SRMSAT 26 Sep 01:18:54 01:23:04 20° 180° (S) 01:27:14 437.500
Oscar 19 26 Sep 01:21:02 01:25:13 24° 96° (E) 01:29:21 437.125/150
QB50P1 26 Sep 01:24:45 01:27:24 16° 292° (WNW) 01:30:03 145.935-145.965
DUCHIFAT 1 26 Sep 01:24:52 01:27:46 19° 291° (WNW) 01:30:41 145.980
JAS-2 26 Sep 01:27:33 01:35:00 48° 290° (WNW) 01:42:07 435.910
BUGSAT 1 26 Sep 01:35:43 01:39:19 32° 287° (WNW) 01:42:54 437.445
POPSAT HIP 1 26 Sep 01:39:02 01:40:35 12° 294° (WNW) 01:42:08 437.405
BEESAT 3 26 Sep 01:47:41 01:51:21 41° 302° (WNW) 01:55:06 437.485
ITUPSAT 1 26 Sep 01:49:50 01:53:55 29° 70° (ENE) 01:58:01 437.325
Gurwin Techsat 1B 26 Sep 02:01:04 02:05:38 29° 97° (E) 02:10:11 435.225
YUBILEINY 26 Sep 02:02:02 02:08:37 24° 83° (E) 02:15:10 435.215
SWISSCUBE 26 Sep 02:03:36 02:08:09 47° 73° (ENE) 02:12:42 437.505
BEESAT 26 Sep 02:16:43 02:21:21 59° 74° (ENE) 02:26:03 436.000
MOZHAYETS 4 26 Sep 02:28:42 02:29:45 11° 65° (ENE) 02:30:48
TISAT 1 26 Sep 02:37:40 02:39:19 12° 267° (W) 02:40:59 437.305
BEESAT 2 26 Sep 02:39:18 02:42:31 24° 306° (NW) 02:45:46 435.950
ISS 26 Sep 02:42:46 02:43:54 11° 27° (NNE) 02:45:01 145.825
Oscar 19 26 Sep 02:59:57 03:04:30 32° 290° (WNW) 03:09:00 437.125/150
Cosmos 2491 26 Sep 03:00:53 03:09:37 68° 268° (W) 03:18:19 435.465 / 435.565
AIST 2 26 Sep 03:06:17 03:08:55 17° 109° (ESE) 03:11:34 435.215
KKS-1 26 Sep 03:07:12 03:10:22 19° 68° (ENE) 03:13:32 437.445
SRMSAT 26 Sep 03:08:00 03:11:33 16° 190° (S) 03:15:06 437.500
AO-7 26 Sep 03:10:06 03:16:10 22° 95° (E) 03:22:12 29.400- 29.500
RS-15 26 Sep 03:20:58 03:30:08 23° 33° (NNE) 03:39:11 29.354- 29.394
ITUPSAT 1 26 Sep 03:27:53 03:31:41 24° 264° (W) 03:35:30 437.325
Gurwin Techsat 1B 26 Sep 03:40:55 03:45:28 29° 291° (WNW) 03:50:00 435.225
PCSat 26 Sep 03:42:37 03:46:36 21° 106° (ESE) 03:50:35 145.827
SWISSCUBE 26 Sep 03:43:37 03:46:08 14° 267° (W) 03:48:40 437.505
STARS 26 Sep 03:46:14 03:49:46 24° 70° (ENE) 03:53:18 437.465
ITAMSAT 1 26 Sep 03:47:50 03:53:06 87° 111° (ESE) 03:58:19 435.822/435.867
YUBILEINY 26 Sep 03:56:00 04:04:39 61° 279° (W) 04:13:20 435.215
BEESAT 26 Sep 03:58:04 03:59:27 11° 268° (W) 04:00:51 436.000
MOZHAYETS 4 26 Sep 04:01:49 04:06:19 63° 259° (W) 04:10:53
Cosmos 2504 26 Sep 04:12:24 04:19:55 69° 93° (E) 04:27:04 435.465 / 435.565
ISS 26 Sep 04:17:31 04:20:49 85° 43° (NE) 04:24:06 145.825
KKS-1 26 Sep 04:42:41 04:46:40 32° 262° (W) 04:50:40 437.445
AIST 2 26 Sep 04:43:22 04:47:05 33° 304° (NW) 04:50:51 435.215
AO-7 26 Sep 05:01:12 05:09:24 68° 291° (WNW) 05:17:35 29.400- 29.500
CUSAT 1 26 Sep 05:06:13 05:10:51 17° 64° (ENE) 05:15:05 437.405
AIST 1 26 Sep 05:06:34 05:10:40 40° 92° (E) 05:14:46
BRITE-PL 26 Sep 05:15:48 05:18:34 15° 91° (E) 05:21:13 437.365/2234.400
CUBESAT XI-V 26 Sep 05:15:48 05:20:28 83° 257° (WSW) 05:25:13 437.345
STARS 26 Sep 05:22:25 05:25:59 24° 263° (W) 05:29:34 437.465
PCSat 26 Sep 05:24:31 05:29:37 43° 300° (WNW) 05:34:47 145.827
RS-15 26 Sep 05:32:49 05:45:15 74° 59° (ENE) 05:57:16 29.354- 29.394
HORYU 2 26 Sep 05:57:06 06:01:34 89° 273° (W) 06:06:01 437.375
NOAA 18 26 Sep 05:58:52 06:01:26 13° 93° (E) 06:04:00 137.9125
Cosmos 2504 26 Sep 06:09:12 06:13:48 17° 289° (WNW) 06:18:19 435.465 / 435.565
LilacSat-2 26 Sep 06:14:33 06:17:36 22° 96° (E) 06:20:38 437.200
DANDE 26 Sep 06:15:13 06:22:16 29° 71° (ENE) 06:28:56 436.750
